FHA57EL EDDS-LFML

Flight info

Callsign FHA57EL
Flight time N/A
Altitude 35000
Route ROTWE5B ROTWE Y126 TUBLO N850 NATOR DCT LUTIX DCT BENOT DCT NEMOS DCT GEVEA DCT INCUS DCT BALSI BALSI1R
Aircraft A321/M-SDE3FGHIRWY/LB1

Departure

Time 2026-05-05 16:58
Airport Stuttgart Airport (EDDS)

Arrival

Time N/A
Airport Marseille Provence Airport (LFML)
Time Latitude Longitude Altitude Speed Heading
2026-05-05 16:18 48.68893 9.19430 1315 ft 0 kts 344°
2026-05-05 16:48 48.68876 9.19437 1315 ft 4 kts 344°
2026-05-05 16:48 48.68853 9.19447 1314 ft 2 kts 344°
2026-05-05 16:48 48.68830 9.19451 1313 ft 4 kts 28°
2026-05-05 16:49 48.68815 9.19423 1313 ft 4 kts 72°
2026-05-05 16:49 48.68812 9.19412 1313 ft 0 kts 74°
2026-05-05 16:51 48.68817 9.19436 1313 ft 7 kts 74°
2026-05-05 16:52 48.68834 9.19527 1311 ft 11 kts 74°
2026-05-05 16:52 48.68859 9.19653 1309 ft 14 kts 74°
2026-05-05 16:52 48.68887 9.19814 1304 ft 12 kts 85°
2026-05-05 16:52 48.68826 9.19923 1297 ft 16 kts 118°
2026-05-05 16:53 48.68850 9.20092 1293 ft 18 kts 72°
2026-05-05 16:53 48.68886 9.20295 1289 ft 22 kts 75°
2026-05-05 16:53 48.68932 9.20530 1282 ft 25 kts 75°
2026-05-05 16:53 48.68983 9.20800 1276 ft 28 kts 71°
2026-05-05 16:54 48.69041 9.21089 1272 ft 26 kts 73°
2026-05-05 16:54 48.69092 9.21368 1271 ft 29 kts 74°
2026-05-05 16:54 48.69149 9.21668 1262 ft 31 kts 74°
2026-05-05 16:54 48.69210 9.22000 1258 ft 34 kts 73°
2026-05-05 16:55 48.69282 9.22359 1244 ft 37 kts 74°
2026-05-05 16:55 48.69354 9.22728 1231 ft 38 kts 73°
2026-05-05 16:55 48.69410 9.23020 1226 ft 19 kts 74°
2026-05-05 16:55 48.69447 9.23223 1226 ft 20 kts 75°
2026-05-05 16:56 48.69483 9.23425 1232 ft 20 kts 75°
2026-05-05 16:56 48.69516 9.23619 1252 ft 17 kts 82°
2026-05-05 16:56 48.69460 9.23746 1248 ft 11 kts 166°
2026-05-05 16:56 48.69372 9.23687 1228 ft 22 kts 224°
2026-05-05 16:57 48.69246 9.23477 1208 ft 19 kts 232°
2026-05-05 16:57 48.69211 9.23371 1210 ft 0 kts 256°
2026-05-05 16:57 48.69211 9.23370 1210 ft 1 kts 256°
2026-05-05 16:57 48.69164 9.23128 1215 ft 61 kts 253°
2026-05-05 16:58 48.68981 9.22164 1236 ft 128 kts 254°
2026-05-05 16:58 48.68689 9.20598 1283 ft 178 kts 254°
2026-05-05 16:58 48.68342 9.18766 1888 ft 183 kts 254°
2026-05-05 16:58 48.67985 9.16917 2691 ft 183 kts 252°
2026-05-05 16:59 48.67625 9.15100 3461 ft 176 kts 253°
2026-05-05 16:59 48.67274 9.13361 4211 ft 170 kts 252°
2026-05-05 16:59 48.66936 9.11661 4820 ft 173 kts 253°
2026-05-05 16:59 48.66601 9.09832 5075 ft 193 kts 253°
2026-05-05 17:00 48.66224 9.07764 5220 ft 216 kts 252°
2026-05-05 17:00 48.65792 9.05439 5421 ft 242 kts 252°
2026-05-05 17:00 48.65261 9.02972 6036 ft 251 kts 242°
2026-05-05 17:00 48.64198 9.00876 6755 ft 255 kts 225°
2026-05-05 17:01 48.62935 8.98981 7496 ft 259 kts 225°
2026-05-05 17:01 48.61645 8.97073 7755 ft 260 kts 225°
2026-05-05 17:01 48.60352 8.95173 7827 ft 259 kts 225°
2026-05-05 17:01 48.59062 8.93280 7835 ft 259 kts 225°
2026-05-05 17:02 48.57771 8.91386 7834 ft 259 kts 225°
2026-05-05 17:02 48.56481 8.89493 7834 ft 258 kts 225°
2026-05-05 17:02 48.55206 8.87623 7834 ft 259 kts 225°
2026-05-05 17:02 48.53914 8.85731 7834 ft 259 kts 224°
2026-05-05 17:03 48.52623 8.83841 7833 ft 258 kts 225°
2026-05-05 17:03 48.51333 8.81953 7832 ft 258 kts 225°
2026-05-05 17:03 48.50043 8.80070 7849 ft 260 kts 224°
2026-05-05 17:03 48.48729 8.78154 8512 ft 263 kts 225°
2026-05-05 17:04 48.47415 8.76235 9358 ft 263 kts 225°
2026-05-05 17:04 48.46096 8.74304 10020 ft 270 kts 224°
2026-05-05 17:04 48.44689 8.72248 10201 ft 293 kts 224°
2026-05-05 17:04 48.43173 8.70028 10329 ft 315 kts 225°
2026-05-05 17:05 48.41574 8.67688 10492 ft 334 kts 224°
2026-05-05 17:05 48.39888 8.65226 10934 ft 342 kts 224°
2026-05-05 17:05 48.38167 8.62720 11543 ft 346 kts 224°
2026-05-05 17:05 48.36426 8.60189 12099 ft 350 kts 224°
2026-05-05 17:06 48.34668 8.57630 12688 ft 354 kts 224°
2026-05-05 17:06 48.32886 8.55041 13258 ft 358 kts 224°
2026-05-05 17:06 48.31087 8.52431 13717 ft 361 kts 224°
2026-05-05 17:06 48.29276 8.49814 13817 ft 361 kts 224°
2026-05-05 17:07 48.27464 8.47202 13839 ft 361 kts 224°
2026-05-05 17:07 48.25649 8.44585 13841 ft 361 kts 224°
2026-05-05 17:07 48.23849 8.41987 13843 ft 361 kts 224°
2026-05-05 17:07 48.22063 8.39411 13843 ft 361 kts 224°
2026-05-05 17:08 48.20252 8.36802 13841 ft 361 kts 224°
2026-05-05 17:08 48.18443 8.34201 13842 ft 361 kts 224°
2026-05-05 17:08 48.16554 8.31725 13843 ft 361 kts 217°
2026-05-05 17:08 48.14453 8.29663 13846 ft 362 kts 213°
2026-05-05 17:09 48.12335 8.27630 13848 ft 361 kts 214°
2026-05-05 17:09 48.10215 8.25585 14163 ft 365 kts 214°
2026-05-05 17:09 48.08079 8.23519 14765 ft 367 kts 214°
2026-05-05 17:09 48.05929 8.21439 15322 ft 369 kts 214°
2026-05-05 17:10 48.03764 8.19346 15868 ft 372 kts 214°
2026-05-05 17:10 48.01608 8.17270 16400 ft 375 kts 213°
2026-05-05 17:10 47.99406 8.15156 16896 ft 378 kts 214°
2026-05-05 17:10 47.97186 8.13023 17406 ft 381 kts 213°
2026-05-05 17:11 47.94952 8.10879 17895 ft 384 kts 213°
2026-05-05 17:11 47.92697 8.08721 18364 ft 386 kts 213°
2026-05-05 17:11 47.90432 8.06557 18824 ft 388 kts 213°
2026-05-05 17:11 47.88155 8.04380 19270 ft 390 kts 213°
2026-05-05 17:12 47.85864 8.02196 19709 ft 393 kts 212°
2026-05-05 17:12 47.83552 7.99997 20135 ft 395 kts 212°
2026-05-05 17:12 47.81231 7.97789 20582 ft 397 kts 212°
2026-05-05 17:12 47.78894 7.95563 21007 ft 400 kts 212°
2026-05-05 17:13 47.76573 7.93355 21409 ft 403 kts 212°
2026-05-05 17:13 47.74200 7.91103 21821 ft 406 kts 212°
2026-05-05 17:13 47.71811 7.88838 22222 ft 409 kts 211°
2026-05-05 17:13 47.69403 7.86558 22625 ft 412 kts 211°
2026-05-05 17:14 47.66976 7.84265 23019 ft 415 kts 211°
2026-05-05 17:14 47.64534 7.81961 23428 ft 418 kts 211°
2026-05-05 17:14 47.62073 7.79639 23780 ft 420 kts 211°
2026-05-05 17:14 47.59606 7.77308 24144 ft 422 kts 211°
2026-05-05 17:15 47.57126 7.74966 24499 ft 424 kts 211°
2026-05-05 17:15 47.54664 7.72648 24847 ft 425 kts 211°
2026-05-05 17:15 47.52165 7.70298 25253 ft 425 kts 212°
2026-05-05 17:15 47.49672 7.67952 25657 ft 425 kts 212°
2026-05-05 17:16 47.47172 7.65601 26013 ft 427 kts 212°
2026-05-05 17:16 47.44661 7.63247 26348 ft 428 kts 212°
2026-05-05 17:16 47.42139 7.60890 26669 ft 430 kts 212°
2026-05-05 17:16 47.39603 7.58524 26975 ft 431 kts 212°
2026-05-05 17:17 47.37065 7.56161 27264 ft 433 kts 212°
2026-05-05 17:17 47.34548 7.53813 27540 ft 434 kts 212°
2026-05-05 17:17 47.31999 7.51435 27877 ft 433 kts 213°
2026-05-05 17:17 47.29458 7.49066 28320 ft 431 kts 213°
2026-05-05 17:18 47.26931 7.46718 28726 ft 429 kts 213°
2026-05-05 17:18 47.24408 7.44379 29122 ft 427 kts 212°
2026-05-05 17:18 47.21899 7.42058 29519 ft 426 kts 213°
2026-05-05 17:18 47.19391 7.39743 29944 ft 424 kts 213°
2026-05-05 17:19 47.17007 7.37218 30297 ft 422 kts 221°
2026-05-05 17:19 47.14934 7.34173 30581 ft 422 kts 229°
2026-05-05 17:19 47.13114 7.30803 30899 ft 420 kts 231°
2026-05-05 17:19 47.11327 7.27484 31205 ft 419 kts 231°
2026-05-05 17:20 47.09512 7.24139 31493 ft 419 kts 231°
2026-05-05 17:20 47.07694 7.20804 31779 ft 418 kts 230°
2026-05-05 17:20 47.05879 7.17478 32081 ft 418 kts 230°
2026-05-05 17:20 47.04065 7.14156 32377 ft 417 kts 231°
2026-05-05 17:21 47.02253 7.10842 32670 ft 417 kts 230°
2026-05-05 17:21 47.00442 7.07532 32932 ft 416 kts 230°
2026-05-05 17:21 46.98630 7.04223 33213 ft 416 kts 230°
2026-05-05 17:22 46.95040 6.97680 33803 ft 413 kts 231°
2026-05-05 17:22 46.93247 6.94413 34129 ft 411 kts 230°
2026-05-05 17:22 46.91417 6.91203 34335 ft 411 kts 226°
2026-05-05 17:22 46.89306 6.88392 34516 ft 411 kts 219°
2026-05-05 17:23 46.87088 6.85749 34695 ft 412 kts 219°
2026-05-05 17:23 46.84867 6.83106 34853 ft 413 kts 219°
2026-05-05 17:23 46.82629 6.80447 34888 ft 415 kts 219°
2026-05-05 17:24 46.78150 6.75123 34895 ft 416 kts 219°
2026-05-05 17:24 46.73709 6.69851 34898 ft 413 kts 220°
2026-05-05 17:25 46.69259 6.64567 34902 ft 412 kts 220°
2026-05-05 17:25 46.64808 6.59303 34906 ft 412 kts 220°
2026-05-05 17:26 46.60351 6.54045 34912 ft 413 kts 219°
2026-05-05 17:26 46.55914 6.48832 34915 ft 413 kts 219°
2026-05-05 17:27 46.51447 6.43582 34945 ft 414 kts 219°
2026-05-05 17:27 46.46966 6.38329 34937 ft 414 kts 219°
2026-05-05 17:28 46.42474 6.33083 34926 ft 415 kts 219°
2026-05-05 17:28 46.37975 6.27844 34935 ft 415 kts 219°
2026-05-05 17:29 46.33512 6.22653 34944 ft 414 kts 219°
2026-05-05 17:29 46.29031 6.17446 34947 ft 413 kts 219°
2026-05-05 17:30 46.24055 6.13337 34944 ft 416 kts 201°
2026-05-05 17:30 46.18357 6.11676 34941 ft 419 kts 192°
2026-05-05 17:31 46.12594 6.10396 34945 ft 419 kts 192°
2026-05-05 17:31 46.06865 6.09109 34919 ft 419 kts 192°
2026-05-05 17:32 46.01103 6.07826 34917 ft 419 kts 192°
2026-05-05 17:32 45.95342 6.06555 34910 ft 418 kts 193°
2026-05-05 17:33 45.89587 6.05289 34917 ft 418 kts 193°
2026-05-05 17:33 45.83885 6.04039 34918 ft 417 kts 193°
2026-05-05 17:34 45.78147 6.02770 34912 ft 417 kts 193°
2026-05-05 17:34 45.72420 6.01506 34921 ft 416 kts 193°
2026-05-05 17:35 45.66698 6.00248 34882 ft 416 kts 193°
2026-05-05 17:35 45.61015 5.98999 34872 ft 416 kts 193°
2026-05-05 17:36 45.55581 5.97798 34916 ft 416 kts 193°